Location: Isle of Man Observatory
(54.1776°N, 4.6264°W)
Time: 18:43:56
(UTC+02:00)

ISS - Visible Passes

Search period start: 15 May 2026 00:00
Search period end: 25 May 2026 00:00
Orbit: 414 x 424 km, 51.6° (Epoch: 15 May)

Date Brightness Start Highest point End Pass type
(mag) Time Alt. Az. Time Alt. Az. Time Alt. Az.
15 May -3.7 00:08:34 10° W 00:11:51 54° S 00:14:19 16° ESE visible
15 May -2.3 01:45:22 10° W 01:47:15 23° WSW 01:47:15 23° WSW visible
15 May -3.6 23:20:57 10° WSW 23:24:15 56° S 23:27:32 10° ESE visible
16 May -3.1 00:57:40 10° W 01:00:46 35° SSW 01:01:11 33° S visible
17 May -3.3 00:10:01 10° W 00:13:11 42° SSW 00:15:06 20° SE visible
17 May -1.5 01:47:15 10° WSW 01:48:02 13° WSW 01:48:02 13° WSW visible
17 May -3.4 23:22:21 10° W 23:25:36 49° S 23:28:51 10° ESE visible
18 May -2.3 00:59:18 10° W 01:01:57 22° SSW 01:01:57 22° SSW visible
19 May -2.6 00:11:30 10° W 00:14:26 28° SSW 00:15:54 20° SSE visible
19 May -2.9 23:23:46 10° W 23:26:52 35° SSW 23:29:50 11° SE visible
20 May -1.4 01:01:40 10° WSW 01:02:46 12° SW 01:02:46 12° SW visible
21 May -1.8 00:13:19 10° WSW 00:15:30 16° SW 00:16:43 14° S visible
21 May -2.1 23:25:20 10° W 23:27:58 22° SSW 23:30:37 10° SSE visible
23 May -1.3 23:27:36 10° WSW 23:28:54 12° SW 23:30:14 10° SSW visible
